Latest Coastal Weather Observations for Bougainville Reef

IDQ60701

Issued at 8:15 pm EST Tuesday 23 September 2014 (issued every 10 minutes, with the page automatically refreshed every 10 minutes)

About coastal observations | Map of coastal stations | Coastal observations for QLD | Marine services | Other Formats
Station Details ID: 200840 Name: BOUGAINVILLE REEF Lat: -15.49 Lon: 147.12 Height: 0.0 m
Data from the previous 72 hours. | See also: Recent months for locations in Queensland
Date/Time
EST
Temp

°C
Wind Pressure Rain
since 9am
mm
Weather Cloud Vis
km
Sea
Height
m
Swell
Dir
 
Speed
knots
Gust
knots
hPa Trend Height
m
Period
s
Dir
23/08:15pm 24.1 E 27 32 1016.6 - - - - - - - - -
23/08:10pm 24.3 NE 26 32 1016.5 - - - - - - - - -
23/08:00pm 23.5 ESE 20 31 1016.4 - - - - - - - - -
23/07:49pm 23.3 ESE 21 26 1016.5 - - - - - - - - -
23/07:41pm 22.8 NE 23 39 1016.5 - - - - - - - - -
23/07:30pm 23.5 ESE 32 39 1016.1 - - - - - - - - -
23/07:26pm 23.9 ESE 28 33 1016.2 - - - - - - - - -
23/07:17pm 23.6 E 22 25 1016.3 - - - - - - - - -
23/07:00pm 22.3 NNE 16 20 1016.0 - - - - - - - - -
23/06:31pm 22.1 NNE 16 27 1016.1 - - - - - - - - -
23/06:30pm 22.0 NNE 17 27 1016.0 - - - - - - - - -
23/06:28pm 22.2 NNE 20 27 1016.0 - - - - - - - - -
23/06:24pm 22.4 ENE 20 25 1016.0 - - - - - - - - -
23/06:00pm 24.6 ENE 20 32 1015.4 - - - - - - - - -
23/05:51pm 24.7 E 26 29 1015.5 - - - - - - - - -
23/05:49pm 24.8 NE 19 23 1015.6 - - - - - - - - -
23/05:46pm 24.6 NNE 20 23 1015.5 - - - - - - - - -
23/05:43pm 24.4 E 18 22 1015.5 - - - - - - - - -
23/05:31pm 24.1 NE 20 30 1015.5 - - - - - - - - -
23/05:30pm 24.0 NE 21 30 1015.5 - - - - - - - - -
23/05:26pm 23.8 NE 25 30 1015.3 - - - - - - - - -
23/05:17pm 24.2 E 22 27 1015.4 - - - - - - - - -
23/05:00pm 22.7 ESE 12 14 1015.3 - - - - - - - - -
23/04:43pm 22.3 ENE 14 28 1015.4 - - - - - - - - -
23/04:30pm 23.1 ESE 28 31 1015.0 - - - - - - - - -
23/04:29pm 23.4 ESE 27 31 1014.9 - - - - - - - - -
23/04:27pm 24.2 E 20 31 1015.0 - - - - - - - - -
23/04:10pm 24.5 E 17 22 1015.0 - - - - - - - - -
23/04:00pm 24.4 E 18 23 1014.8 - - - - - - - - -
23/03:30pm 24.5 ESE 20 25 1014.7 - - - - - - - - -
23/03:00pm 24.7 ESE 21 24 1014.5 - - - - - - - - -
23/02:30pm 24.4 ESE 23 26 1014.6 - - - - - - - - -
23/02:00pm 24.3 ESE 23 27 1014.7 - - - - - - - - -
23/01:38pm 24.3 E 20 23 1014.9 - - - - - - - - -
23/01:30pm 24.0 SE 17 22 1015.1 - - - - - - - - -
23/01:00pm 24.7 ESE 18 24 1015.3 - - - - - - - - -
23/12:30pm 24.7 ESE 18 23 1015.7 - - - - - - - - -
23/12:00pm 24.6 E 19 24 1016.2 - - - - - - - - -
23/11:30am 24.5 ESE 17 23 1016.4 - - - - - - - - -
23/11:00am 24.5 ESE 16 22 1016.9 - - - - - - - - -
23/10:30am 24.2 SE 19 24 1017.2 - - - - - - - - -
23/10:00am 24.2 ESE 17 23 1017.1 - - - - - - - - -
23/09:51am 24.1 E 18 25 1017.2 - - - - - - - - -
23/09:46am 24.2 SE 21 25 1017.2 - - - - - - - - -
23/09:45am 24.1 ENE 21 25 1017.2 - - - - - - - - -
23/09:44am 24.0 NE 20 25 1017.1 - - - - - - - - -
23/09:30am 24.1 ESE 17 25 1017.2 - - - - - - - - -
23/09:25am 24.0 ENE 20 24 1017.2 - - - - - - - - -
23/09:22am 24.5 SE 17 21 1017.2 - - - - - - - - -
23/09:12am 24.5 NNE 20 23 1017.2 - - - - - - - - -
23/09:00am 24.5 E 17 22 1017.1 - - - - - - - - -
23/08:30am 24.4 NE 19 23 1017.1 - - - - - - - - -
23/08:00am 24.5 E 18 23 1016.4 - - - - - - - - -
23/07:30am 24.5 E 18 24 1016.3 - - - - - - - - -
23/07:26am 24.4 ENE 21 24 1016.2 - - - - - - - - -
23/07:25am 24.5 NNE 20 24 1016.2 - - - - - - - - -
23/07:00am 24.2 ENE 20 24 1015.6 - - - - - - - - -
23/06:53am 24.4 SE 18 25 1015.7 - - - - - - - - -
23/06:46am 24.3 E 20 25 1015.6 - - - - - - - - -
23/06:41am 24.3 NE 20 23 1015.5 - - - - - - - - -
23/06:30am 24.5 E 19 23 1015.3 - - - - - - - - -
23/06:25am 24.3 E 18 23 1015.3 - - - - - - - - -
23/06:23am 24.2 NNE 20 23 1015.2 - - - - - - - - -
23/06:07am 24.3 ENE 19 25 1015.0 - - - - - - - - -
23/06:04am 24.2 NNE 21 25 1015.0 - - - - - - - - -
23/06:03am 24.2 E 20 25 1015.0 - - - - - - - - -
23/06:01am 24.4 ESE 19 25 1015.0 - - - - - - - - -
23/06:00am 24.2 SE 20 25 1014.7 - - - - - - - - -
23/05:57am 24.2 ENE 20 25 1015.0 - - - - - - - - -
23/05:49am 24.1 SE 19 24 1014.8 - - - - - - - - -
23/05:46am 24.2 E 20 25 1014.8 - - - - - - - - -
23/05:44am 24.2 SE 16 25 1014.9 - - - - - - - - -
23/05:37am 24.3 NE 22 25 1014.8 - - - - - - - - -
23/05:36am 24.1 E 20 25 1014.7 - - - - - - - - -
23/05:30am 24.3 ESE 19 25 1014.7 - - - - - - - - -
23/05:28am 24.3 E 19 25 1014.6 - - - - - - - - -
23/05:22am 24.3 NNE 22 27 1014.6 - - - - - - - - -
23/05:20am 24.2 E 21 27 1014.6 - - - - - - - - -
23/05:00am 24.2 ENE 23 27 1014.2 - - - - - - - - -
23/04:58am 24.2 E 21 27 1014.4 - - - - - - - - -
23/04:55am 24.2 NNE 23 27 1014.4 - - - - - - - - -
23/04:48am 24.2 ENE 22 27 1014.3 - - - - - - - - -
23/04:45am 24.1 NE 23 27 1014.3 - - - - - - - - -
23/04:36am 24.4 SE 16 27 1014.3 - - - - - - - - -
23/04:33am 24.1 NE 23 27 1014.2 - - - - - - - - -
23/04:32am 24.1 E 21 27 1014.2 - - - - - - - - -
23/04:31am 24.2 ESE 20 27 1014.2 - - - - - - - - -
23/04:30am 24.4 ENE 21 27 1014.2 - - - - - - - - -
23/04:27am 24.3 NNE 22 26 1014.2 - - - - - - - - -
23/04:22am 24.3 ESE 21 25 1014.1 - - - - - - - - -
23/04:19am 24.1 ENE 18 25 1014.1 - - - - - - - - -
23/04:11am 24.3 ESE 20 27 1014.1 - - - - - - - - -
23/04:00am 24.2 E 19 27 1014.1 - - - - - - - - -
23/03:45am 24.4 ENE 19 25 1014.2 - - - - - - - - -
23/03:43am 24.2 NNE 22 26 1014.2 - - - - - - - - -
23/03:40am 24.3 E 19 26 1014.1 - - - - - - - - -
23/03:38am 24.3 NNE 22 26 1014.1 - - - - - - - - -
23/03:32am 24.1 E 21 28 1014.0 - - - - - - - - -
23/03:30am 24.4 NE 23 28 1014.0 - - - - - - - - -
23/03:27am 24.2 NE 22 28 1014.0 - - - - - - - - -
23/03:26am 24.2 E 20 27 1014.0 - - - - - - - - -
23/03:25am 24.3 SE 19 27 1014.0 - - - - - - - - -
23/03:06am 24.3 ENE 22 25 1013.9 - - - - - - - - -
23/03:03am 24.2 NNE 22 26 1013.9 - - - - - - - - -
23/03:00am 24.2 ENE 20 26 1013.8 - - - - - - - - -
23/02:59am 24.5 E 20 26 1014.0 - - - - - - - - -
23/02:54am 24.2 NNE 22 25 1014.0 - - - - - - - - -
23/02:45am 24.3 NE 20 25 1014.0 - - - - - - - - -
23/02:42am 24.2 ESE 18 25 1014.0 - - - - - - - - -
23/02:30am 24.3 NE 20 25 1014.1 - - - - - - - - -
23/02:00am 24.3 ENE 17 25 1014.3 - - - - - - - - -
23/01:30am 24.4 NE 18 23 1014.7 - - - - - - - - -
23/01:00am 24.3 ENE 20 24 1014.7 - - - - - - - - -
23/12:58am 24.4 NNE 19 24 1014.8 - - - - - - - - -
23/12:34am 24.3 NE 20 24 1015.0 - - - - - - - - -
23/12:32am 24.3 ESE 18 24 1015.0 - - - - - - - - -
23/12:30am 24.4 NNE 20 24 1015.0 - - - - - - - - -
23/12:28am 24.5 NNE 20 24 1015.0 - - - - - - - - -
23/12:18am 24.4 E 18 24 1015.1 - - - - - - - - -
23/12:11am 24.3 NNE 21 25 1015.1 - - - - - - - - -
23/12:00am 24.3 NNE 21 23 1015.1 - - - - - - - - -
 
Date/Time
EST
Temp

°C
Wind Pressure Rain
since 9am
mm
Weather Cloud Vis
km
Sea
Height
m
Swell
Dir
 
Speed
knots
Gust
knots
hPa Trend Height
m
Period
s
Dir
22/11:58pm 24.3 NNE 20 24 1015.2 - - - - - - - - -
22/11:56pm 24.4 E 18 24 1015.3 - - - - - - - - -
22/11:49pm 24.3 NNE 21 24 1015.2 - - - - - - - - -
22/11:30pm 24.5 E 19 25 1015.3 - - - - - - - - -
22/11:20pm 24.4 NNE 20 24 1015.4 - - - - - - - - -
22/11:00pm 24.4 NE 22 25 1015.5 - - - - - - - - -
22/10:56pm 24.4 E 19 25 1015.6 - - - - - - - - -
22/10:47pm 24.4 NE 22 27 1015.6 - - - - - - - - -
22/10:30pm 24.4 E 24 28 1015.6 - - - - - - - - -
22/10:15pm 24.4 E 24 27 1015.6 - - - - - - - - -
22/10:07pm 24.4 ENE 21 26 1015.7 - - - - - - - - -
22/10:03pm 24.5 NNW 20 27 1015.7 - - - - - - - - -
22/10:00pm 24.4 ESE 22 27 1015.6 - - - - - - - - -
22/09:30pm 24.5 ESE 21 26 1015.7 - - - - - - - - -
22/09:00pm 24.2 SE 19 25 1015.4 - - - - - - - - -
22/08:30pm 24.3 SE 20 23 1015.5 - - - - - - - - -
22/08:00pm 24.4 SE 19 24 1015.2 - - - - - - - - -
22/07:30pm 24.3 ESE 18 24 1015.1 - - - - - - - - -
22/07:00pm 24.4 SE 20 25 1014.7 - - - - - - - - -
22/06:30pm 24.4 SE 21 25 1014.4 - - - - - - - - -
22/06:00pm 24.2 SE 21 25 1013.9 - - - - - - - - -
22/05:30pm 24.5 SE 20 25 1014.0 - - - - - - - - -
22/05:00pm 24.3 SSE 17 22 1013.5 - - - - - - - - -
22/04:30pm 24.2 SE 18 22 1013.6 - - - - - - - - -
22/04:00pm 24.3 SE 16 21 1013.3 - - - - - - - - -
22/03:30pm 24.3 SSE 15 20 1013.3 - - - - - - - - -
22/03:00pm 24.4 SSE 17 22 1013.1 - - - - - - - - -
22/02:30pm 24.1 SSE 16 22 1013.2 - - - - - - - - -
22/02:00pm 24.2 SSE 15 21 1013.6 - - - - - - - - -
22/01:30pm 24.4 SSE 16 22 1014.0 - - - - - - - - -
22/01:00pm 24.2 SSE 14 19 1014.4 - - - - - - - - -
22/12:30pm 24.2 SSE 12 18 1014.7 - - - - - - - - -
22/12:00pm 24.5 SSE 14 21 1015.3 - - - - - - - - -
22/11:30am 24.2 SSE 15 21 1015.9 - - - - - - - - -
22/11:00am 24.3 SSE 16 19 1016.3 - - - - - - - - -
22/10:30am 24.4 SSE 16 20 1016.4 - - - - - - - - -
22/10:00am 24.3 SSE 16 20 1016.4 - - - - - - - - -
22/09:30am 24.6 SE 15 19 1016.5 - - - - - - - - -
22/09:00am 24.3 SE 16 19 1016.4 - - - - - - - - -
22/08:30am 24.1 SSE 15 21 1016.3 - - - - - - - - -
22/08:00am 24.0 SE 14 19 1015.9 - - - - - - - - -
22/07:30am 24.1 SE 14 17 1015.8 - - - - - - - - -
22/07:00am 24.1 SSE 16 20 1015.2 - - - - - - - - -
22/06:30am 24.1 SSE 16 21 1015.0 - - - - - - - - -
22/06:00am 23.8 SE 16 20 1014.7 - - - - - - - - -
22/05:30am 24.2 SSE 16 19 1014.8 - - - - - - - - -
22/05:00am 23.8 SE 15 21 1014.4 - - - - - - - - -
22/04:30am 24.0 SE 16 21 1014.4 - - - - - - - - -
22/04:00am 23.8 SE 17 21 1014.1 - - - - - - - - -
22/03:30am 23.9 ESE 18 22 1014.1 - - - - - - - - -
22/03:00am 24.0 ESE 17 21 1014.1 - - - - - - - - -
22/02:30am 23.8 ESE 16 21 1014.5 - - - - - - - - -
22/02:00am 23.8 SE 18 22 1014.7 - - - - - - - - -
22/01:30am 23.8 SE 15 21 1015.0 - - - - - - - - -
22/01:00am 23.9 SE 11 17 1015.5 - - - - - - - - -
22/12:30am 24.0 SE 13 17 1015.8 - - - - - - - - -
22/12:00am 24.2 SE 17 21 1015.8 - - - - - - - - -
 
Date/Time
EST
Temp

°C
Wind Pressure Rain
since 9am
mm
Weather Cloud Vis
km
Sea
Height
m
Swell
Dir
 
Speed
knots
Gust
knots
hPa Trend Height
m
Period
s
Dir
21/11:30pm 24.2 SE 18 23 1016.3 - - - - - - - - -
21/11:00pm 24.2 SE 19 24 1016.4 - - - - - - - - -
21/10:30pm 24.3 ESE 19 23 1016.5 - - - - - - - - -
21/10:00pm 23.9 ESE 17 22 1016.4 - - - - - - - - -
21/09:30pm 23.4 ESE 19 24 1016.4 - - - - - - - - -
21/09:00pm 24.2 SE 15 20 1016.3 - - - - - - - - -
21/08:30pm 24.2 ESE 17 22 1016.2 - - - - - - - - -
21/08:00pm 24.4 E 18 22 1015.7 - - - - - - - - -
21/07:39pm 24.4 E 20 24 1015.8 - - - - - - - - -
21/07:30pm 24.3 SE 19 23 1015.7 - - - - - - - - -
21/07:00pm 24.4 ESE 18 23 1015.1 - - - - - - - - -
21/06:30pm 24.4 ESE 18 22 1015.0 - - - - - - - - -
21/06:00pm 24.4 ESE 18 22 1014.5 - - - - - - - - -
21/05:30pm 24.5 ESE 17 21 1014.6 - - - - - - - - -
21/05:00pm 24.4 ESE 16 20 1014.0 - - - - - - - - -
21/04:30pm 24.5 SE 17 21 1014.1 - - - - - - - - -
21/04:00pm 24.5 SE 16 21 1014.1 - - - - - - - - -
21/03:30pm 24.6 SE 17 21 1014.1 - - - - - - - - -
21/03:00pm 24.4 SE 15 19 1014.2 - - - - - - - - -
21/02:30pm 24.4 SE 15 19 1014.5 - - - - - - - - -
21/02:00pm 24.5 SSE 14 19 1014.7 - - - - - - - - -
21/01:30pm 24.6 SE 15 19 1015.1 - - - - - - - - -
21/01:00pm 24.5 SE 15 19 1015.4 - - - - - - - - -
21/12:30pm 24.6 SE 16 19 1016.0 - - - - - - - - -
21/12:00pm 24.6 ESE 16 19 1016.5 - - - - - - - - -
21/11:30am 24.7 ESE 17 23 1016.7 - - - - - - - - -
21/11:00am 24.6 ESE 19 23 1016.7 - - - - - - - - -
21/10:55am 24.6 E 20 23 1016.7 - - - - - - - - -
21/10:30am 24.7 SE 19 23 1017.0 - - - - - - - - -
21/10:00am 24.6 SE 18 24 1017.0 - - - - - - - - -
21/09:30am 24.6 ESE 19 24 1017.1 - - - - - - - - -
21/09:00am 24.7 ESE 22 25 1016.9 - - - - - - - - -
21/08:30am 24.7 ESE 20 25 1016.8 - - - - - - - - -
21/08:00am 24.3 ESE 21 24 1015.9 - - - - - - - - -
21/07:30am 24.4 ESE 22 26 1015.8 - - - - - - - - -
21/07:00am 24.5 ESE 20 25 1015.2 - - - - - - - - -
21/06:30am 24.3 ESE 21 25 1015.0 - - - - - - - - -
21/06:00am 24.5 ESE 22 25 1014.5 - - - - - - - - -
21/05:30am 24.2 ESE 20 24 1014.4 - - - - - - - - -
21/05:00am 24.4 ESE 22 26 1013.8 - - - - - - - - -
21/04:30am 24.4 ESE 23 28 1013.7 - - - - - - - - -
21/04:00am 24.3 ESE 21 - 1013.4 - - - - - - - - -
21/03:30am 24.4 ESE 21 24 1013.5 - - - - - - - - -
21/03:00am 24.4 ESE 22 24 1013.7 - - - - - - - - -
21/02:30am 24.3 ESE 22 25 1013.8 - - - - - - - - -
21/02:00am 24.2 ESE 21 25 1014.1 - - - - - - - - -
21/01:30am 24.3 ESE 20 23 1014.7 - - - - - - - - -
21/01:00am 24.4 ESE 18 22 1015.4 - - - - - - - - -
21/12:30am 24.1 ESE 17 22 1015.6 - - - - - - - - -
21/12:00am 24.2 SE 19 23 1015.6 - - - - - - - - -
 
Date/Time
EST
Temp

°C
Wind Pressure Rain
since 9am
mm
Weather Cloud Vis
km
Sea
Height
m
Swell
Dir
 
Speed
knots
Gust
knots
hPa Trend Height
m
Period
s
Dir
20/11:30pm 24.3 ESE 18 21 1015.8 - - - - - - - - -
20/11:00pm 24.3 ESE 16 21 1016.0 - - - - - - - - -
20/10:30pm 24.3 ESE 16 21 1016.1 - - - - - - - - -
20/10:00pm 24.2 SE 17 20 1016.1 - - - - - - - - -
20/09:30pm 24.3 ESE 17 21 1015.9 - - - - - - - - -
20/09:00pm 24.2 ESE 17 22 1015.7 - - - - - - - - -
20/08:30pm 24.4 ESE 17 21 1015.6 - - - - - - - - -

Other Formats:

Comma delimited format used in spreadsheet applications
http://www.bom.gov.au/fwo/IDQ60701/IDQ60701.95288.axf

JavaScript Object Notation format (JSON) in row-major order
http://www.bom.gov.au/fwo/IDQ60701/IDQ60701.95288.json